timestamp,wind_dir_avg,wind_spd_avg,wind_spd_max_dir,wind_spd_gust,battery_voltage,lat,long
2022-07-14 00:04:00+00:00,212.0,7.66,214.0,8.88,12.65,47.59359,-54.27349
2022-07-14 00:14:00+00:00,210.0,7.89,210.0,9.02,12.49,47.59359,-54.27349
2022-07-14 00:24:00+00:00,209.0,8.7,210.0,9.41,12.49,47.59359,-54.27349
2022-07-14 00:34:00+00:00,211.0,8.93,210.0,10.02,12.49,47.59359,-54.27349
2022-07-14 00:44:00+00:00,211.0,8.36,211.0,9.5,12.49,47.59359,-54.27349
2022-07-14 00:54:00+00:00,213.0,8.08,215.0,8.76,12.49,47.59359,-54.27349
2022-07-14 01:04:00+00:00,216.0,6.93,217.0,8.13,12.49,47.59359,-54.27349
2022-07-14 01:14:01+00:00,220.0,8.51,221.0,9.39,12.41,47.59359,-54.27349
2022-07-14 01:24:01+00:00,218.0,7.45,218.0,8.29,12.41,47.59359,-54.27349
2022-07-14 01:34:01+00:00,212.0,6.15,218.0,7.02,12.41,47.59359,-54.27349
2022-07-14 01:44:01+00:00,206.0,7.82,212.0,8.6,12.41,47.59359,-54.27349
2022-07-14 01:54:01+00:00,208.0,7.73,209.0,8.47,12.41,47.59359,-54.27349
2022-07-14 02:04:01+00:00,210.0,6.71,214.0,7.55,12.41,47.59359,-54.27349
2022-07-14 02:14:01+00:00,213.0,6.35,211.0,6.98,12.33,47.59359,-54.27349
2022-07-14 02:24:01+00:00,212.0,5.68,216.0,6.44,12.33,47.59359,-54.27349
2022-07-14 02:34:01+00:00,208.0,6.39,214.0,7.21,12.33,47.59359,-54.27349
2022-07-14 02:44:01+00:00,206.0,6.66,210.0,7.2,12.33,47.59359,-54.27349
2022-07-14 02:54:01+00:00,203.0,6.65,202.0,7.27,12.33,47.59359,-54.27349
2022-07-14 03:04:01+00:00,200.0,6.94,203.0,7.64,12.33,47.59359,-54.27349
2022-07-14 03:14:01+00:00,197.0,6.6,200.0,7.07,12.41,47.59359,-54.27349
2022-07-14 03:24:01+00:00,192.0,6.1,194.0,6.59,12.41,47.59359,-54.27349
2022-07-14 03:34:01+00:00,199.0,6.55,201.0,7.19,12.41,47.59359,-54.27349
2022-07-14 03:44:01+00:00,195.0,6.41,198.0,6.76,12.41,47.59359,-54.27349
2022-07-14 03:54:01+00:00,196.0,7.21,197.0,7.79,12.41,47.59359,-54.27349
2022-07-14 04:04:01+00:00,198.0,6.78,200.0,7.59,12.41,47.59359,-54.27349
2022-07-14 04:14:01+00:00,207.0,6.78,208.0,7.22,12.41,47.59359,-54.27349
2022-07-14 04:24:01+00:00,211.0,7.11,213.0,7.54,12.41,47.59359,-54.27349
2022-07-14 04:34:01+00:00,214.0,7.35,216.0,7.93,12.41,47.59359,-54.27349
2022-07-14 04:44:01+00:00,213.0,6.59,215.0,7.45,12.41,47.59359,-54.27349
2022-07-14 04:54:01+00:00,218.0,6.07,216.0,7.31,12.41,47.59359,-54.27349
2022-07-14 05:04:01+00:00,218.0,5.73,219.0,6.28,12.41,47.59359,-54.27349
2022-07-14 05:14:00+00:00,223.0,5.16,230.0,5.75,12.33,47.59359,-54.27349
2022-07-14 05:24:00+00:00,209.0,4.13,208.0,4.52,12.33,47.59359,-54.27349
2022-07-14 05:34:00+00:00,229.0,3.84,248.0,5.17,12.33,47.59359,-54.27349
2022-07-14 05:44:00+00:00,221.0,3.75,225.0,4.62,12.33,47.59359,-54.27349
2022-07-14 05:54:00+00:00,216.0,4.87,227.0,5.6,12.33,47.59359,-54.27349
2022-07-14 06:04:00+00:00,219.0,4.01,227.0,4.87,12.33,47.59359,-54.27349
2022-07-14 06:14:00+00:00,206.0,4.33,211.0,4.61,12.25,47.59359,-54.27349
2022-07-14 06:24:00+00:00,185.0,3.25,185.0,3.7,12.25,47.59359,-54.27349
2022-07-14 06:34:00+00:00,186.0,5.98,187.0,6.63,12.25,47.59359,-54.27349
2022-07-14 06:44:00+00:00,193.0,5.42,194.0,5.93,12.25,47.59359,-54.27349
2022-07-14 06:54:00+00:00,188.0,5.06,189.0,5.23,12.25,47.59359,-54.27349
2022-07-14 07:04:00+00:00,196.0,3.75,211.0,4.5,12.25,47.59359,-54.27349
2022-07-14 07:14:01+00:00,208.0,4.78,207.0,5.28,12.25,47.59359,-54.27349
2022-07-14 07:24:01+00:00,196.0,2.81,193.0,3.13,12.25,47.59359,-54.27349
2022-07-14 07:34:01+00:00,315.0,0.01,224.0,0.0,12.25,47.59359,-54.27349
2022-07-14 07:44:01+00:00,315.0,0.01,224.0,0.0,12.25,47.59359,-54.27349
2022-07-14 07:54:01+00:00,315.0,0.01,224.0,0.0,12.25,47.59359,-54.27349
2022-07-14 08:04:01+00:00,315.0,0.01,224.0,0.0,12.25,47.59359,-54.27349
2022-07-14 08:14:00+00:00,202.0,2.9,200.0,3.59,12.17,47.59359,-54.27349
2022-07-14 08:24:00+00:00,218.0,2.34,218.0,2.52,12.17,47.59359,-54.27349
2022-07-14 08:34:00+00:00,205.0,3.05,202.0,3.35,12.17,47.59359,-54.27349
2022-07-14 08:44:00+00:00,198.0,3.84,197.0,4.07,12.17,47.59359,-54.27349
2022-07-14 08:54:00+00:00,209.0,4.36,208.0,4.63,12.17,47.59359,-54.27349
2022-07-14 09:04:00+00:00,212.0,4.59,212.0,4.98,12.17,47.59359,-54.27349
2022-07-14 09:14:01+00:00,214.0,4.24,213.0,4.56,12.41,47.59359,-54.27349
2022-07-14 09:24:01+00:00,208.0,3.81,210.0,4.03,12.41,47.59359,-54.27349
2022-07-14 09:34:01+00:00,204.0,4.8,204.0,5.4,12.41,47.59359,-54.27349
2022-07-14 09:44:01+00:00,204.0,5.06,205.0,5.38,12.41,47.59359,-54.27349
2022-07-14 09:54:01+00:00,207.0,5.1,209.0,5.66,12.41,47.59359,-54.27349
2022-07-14 10:04:01+00:00,208.0,4.44,209.0,5.34,12.41,47.59359,-54.27349
2022-07-14 10:14:00+00:00,220.0,5.24,223.0,5.55,13.44,47.59359,-54.27349
2022-07-14 10:24:00+00:00,223.0,4.66,225.0,5.05,13.44,47.59359,-54.27349
2022-07-14 10:34:00+00:00,227.0,3.51,229.0,4.19,13.44,47.59359,-54.27349
2022-07-14 10:44:00+00:00,219.0,3.87,224.0,4.06,13.44,47.59359,-54.27349
2022-07-14 10:54:00+00:00,209.0,4.5,209.0,4.74,13.44,47.59359,-54.27349
2022-07-14 11:04:00+00:00,207.0,4.97,209.0,5.4,13.44,47.59359,-54.27349
2022-07-14 11:14:00+00:00,209.0,4.88,212.0,5.15,13.53,47.59359,-54.27349
2022-07-14 11:24:00+00:00,214.0,3.94,215.0,4.22,13.53,47.59359,-54.27349
2022-07-14 11:34:00+00:00,203.0,3.88,204.0,4.17,13.53,47.59359,-54.27349
2022-07-14 11:44:00+00:00,207.0,4.82,210.0,5.0,13.53,47.59359,-54.27349
2022-07-14 11:54:00+00:00,209.0,4.75,209.0,5.01,13.53,47.59359,-54.27349
2022-07-14 12:04:00+00:00,213.0,4.5,212.0,4.74,13.53,47.59359,-54.27349
2022-07-14 12:14:00+00:00,211.0,4.43,212.0,4.59,13.53,47.59359,-54.27349
2022-07-14 12:24:00+00:00,207.0,4.88,206.0,5.18,13.53,47.59359,-54.27349
2022-07-14 12:34:00+00:00,205.0,5.47,205.0,5.96,13.53,47.59359,-54.27349
2022-07-14 12:44:00+00:00,206.0,5.41,207.0,5.92,13.53,47.59359,-54.27349
2022-07-14 12:54:00+00:00,201.0,5.23,201.0,5.65,13.53,47.59359,-54.27349
2022-07-14 13:04:00+00:00,210.0,5.0,211.0,5.31,13.53,47.59359,-54.27349
2022-07-14 13:14:01+00:00,198.0,5.05,197.0,5.3,14.24,47.59359,-54.27349
2022-07-14 13:24:01+00:00,192.0,5.37,193.0,5.86,14.24,47.59359,-54.27349
2022-07-14 13:34:01+00:00,193.0,4.89,193.0,5.26,14.24,47.59359,-54.27349
2022-07-14 13:44:01+00:00,190.0,5.69,191.0,5.84,14.24,47.59359,-54.27349
2022-07-14 13:54:01+00:00,196.0,5.43,195.0,5.78,14.24,47.59359,-54.27349
2022-07-14 14:04:01+00:00,204.0,5.31,209.0,5.91,14.24,47.59359,-54.27349
2022-07-14 14:14:00+00:00,204.0,5.65,206.0,6.3,14.32,47.59359,-54.27349
2022-07-14 14:24:00+00:00,208.0,6.12,208.0,6.52,14.32,47.59359,-54.27349
2022-07-14 14:34:00+00:00,204.0,6.38,203.0,6.88,14.32,47.59359,-54.27349
2022-07-14 14:44:00+00:00,208.0,5.87,207.0,6.27,14.32,47.59359,-54.27349
2022-07-14 14:54:00+00:00,210.0,6.18,210.0,6.52,14.32,47.59359,-54.27349
2022-07-14 15:04:00+00:00,206.0,6.79,204.0,7.54,14.32,47.59359,-54.27349
2022-07-14 15:14:00+00:00,208.0,6.5,208.0,7.11,14.24,47.59359,-54.27349
2022-07-14 15:24:00+00:00,208.0,7.68,210.0,8.42,14.24,47.59359,-54.27349
2022-07-14 15:34:00+00:00,206.0,7.28,209.0,7.84,14.24,47.59359,-54.27349
2022-07-14 15:44:00+00:00,204.0,6.79,206.0,7.68,14.24,47.59359,-54.27349
2022-07-14 15:54:00+00:00,209.0,7.84,213.0,8.87,14.24,47.59359,-54.27349
2022-07-14 16:04:00+00:00,208.0,7.37,200.0,9.67,14.24,47.59359,-54.27349
2022-07-14 16:14:01+00:00,214.0,7.14,215.0,7.82,14.32,47.59359,-54.27349
2022-07-14 16:24:01+00:00,215.0,6.79,219.0,8.02,14.32,47.59359,-54.27349
2022-07-14 16:34:01+00:00,208.0,8.08,209.0,8.63,14.32,47.59359,-54.27349
2022-07-14 16:44:01+00:00,209.0,8.38,210.0,8.91,14.32,47.59359,-54.27349
2022-07-14 16:54:01+00:00,211.0,8.33,218.0,9.26,14.32,47.59359,-54.27349
2022-07-14 17:04:01+00:00,201.0,7.85,201.0,8.56,14.32,47.59359,-54.27349
2022-07-14 17:14:01+00:00,198.0,8.1,193.0,8.75,14.16,47.59359,-54.27349
2022-07-14 17:24:01+00:00,179.0,6.45,178.0,7.18,14.16,47.59359,-54.27349
2022-07-14 17:34:01+00:00,188.0,6.16,193.0,7.2,14.16,47.59359,-54.27349
2022-07-14 17:44:01+00:00,190.0,6.12,197.0,7.46,14.16,47.59359,-54.27349
2022-07-14 17:54:01+00:00,178.0,6.51,180.0,7.06,14.16,47.59359,-54.27349
2022-07-14 18:04:01+00:00,189.0,6.01,196.0,6.79,14.16,47.59359,-54.27349
2022-07-14 18:14:01+00:00,205.0,8.01,210.0,9.21,13.76,47.59359,-54.27349
2022-07-14 18:24:01+00:00,199.0,7.75,200.0,8.3,13.76,47.59359,-54.27349
2022-07-14 18:34:01+00:00,198.0,7.77,200.0,8.29,13.76,47.59359,-54.27349
2022-07-14 18:44:01+00:00,188.0,6.79,190.0,7.81,13.76,47.59359,-54.27349
2022-07-14 18:54:01+00:00,188.0,7.04,190.0,8.1,13.76,47.59359,-54.27349
2022-07-14 19:04:01+00:00,217.0,9.06,218.0,10.15,13.76,47.59359,-54.27349
2022-07-14 19:14:01+00:00,218.0,9.05,217.0,9.99,13.68,47.59359,-54.27349
2022-07-14 19:24:01+00:00,218.0,9.32,219.0,10.28,13.68,47.59359,-54.27349
2022-07-14 19:34:01+00:00,219.0,9.41,218.0,10.47,13.68,47.59359,-54.27349
2022-07-14 19:44:01+00:00,218.0,8.67,219.0,9.78,13.68,47.59359,-54.27349
2022-07-14 19:54:01+00:00,206.0,7.61,207.0,8.13,13.68,47.59359,-54.27349
2022-07-14 20:04:01+00:00,193.0,7.4,194.0,8.05,13.68,47.59359,-54.27349
2022-07-14 20:14:00+00:00,189.0,6.11,194.0,6.96,13.68,47.59359,-54.27349
2022-07-14 20:24:00+00:00,214.0,8.08,217.0,9.09,13.68,47.59359,-54.27349
2022-07-14 20:34:00+00:00,218.0,10.06,216.0,11.28,13.68,47.59359,-54.27349
2022-07-14 20:44:00+00:00,219.0,9.61,218.0,10.71,13.68,47.59359,-54.27349
2022-07-14 20:54:00+00:00,214.0,7.89,220.0,8.77,13.68,47.59359,-54.27349
2022-07-14 21:04:00+00:00,209.0,7.29,214.0,8.08,13.68,47.59359,-54.27349
2022-07-14 21:14:00+00:00,213.0,6.3,219.0,7.19,13.6,47.59359,-54.27349
2022-07-14 21:24:00+00:00,195.0,6.52,195.0,6.92,13.6,47.59359,-54.27349
2022-07-14 21:34:00+00:00,198.0,5.48,200.0,6.01,13.6,47.59359,-54.27349
2022-07-14 21:44:00+00:00,195.0,6.6,198.0,7.21,13.6,47.59359,-54.27349
2022-07-14 21:54:00+00:00,195.0,7.39,196.0,8.23,13.6,47.59359,-54.27349
2022-07-14 22:04:00+00:00,199.0,6.64,202.0,7.45,13.6,47.59359,-54.27349
2022-07-14 22:14:00+00:00,193.0,5.59,191.0,6.15,13.37,47.59359,-54.27349
2022-07-14 22:24:00+00:00,193.0,5.97,192.0,6.39,13.37,47.59359,-54.27349
2022-07-14 22:34:00+00:00,188.0,5.4,191.0,6.0,13.37,47.59359,-54.27349
2022-07-14 22:44:00+00:00,137.0,3.67,141.0,4.83,13.37,47.59359,-54.27349
2022-07-14 22:54:00+00:00,145.0,2.7,157.0,3.93,13.37,47.59359,-54.27349
2022-07-14 23:04:00+00:00,154.0,3.75,144.0,4.73,13.37,47.59359,-54.27349
2022-07-14 23:14:00+00:00,165.0,4.22,150.0,4.98,13.05,47.59359,-54.27349
2022-07-14 23:24:00+00:00,143.0,5.11,150.0,5.68,13.05,47.59359,-54.27349
2022-07-14 23:34:00+00:00,174.0,3.98,180.0,4.43,13.05,47.59359,-54.27349
2022-07-14 23:44:00+00:00,175.0,2.72,171.0,2.9,13.05,47.59359,-54.27349
2022-07-14 23:54:00+00:00,142.0,1.56,144.0,1.7,13.05,47.59359,-54.27349
